Flag for U.S.A. Weather past 2 weeks in McAllen, Texas, U.S.A.

Now
81 °F

Sunny.


Feels Like: 83 °F
Forecast: 63 / 85 °F
Wind: 9 mph from East

Location: Miller International Airport

Current Time: Oct 25, 2014 at 7:18:44 PM

Latest Report: Oct 25, 2014 at 6:53 PM


Visibility: 10 mi

Pressure: 30.07 "Hg

Humidity: 56%

Dew point: 64 °F

Location of McAllenLocation

Historic Weather in McAllen — Graph

°F

McAllen temperature yesterday

Maximum temperature yesterday: 86 °F (at 2:53 PM)
Minimum temperature yesterday: 65 °F (at 6:53 AM)
Average temperature yesterday: 75 °F

Past Weeks' High & Low Weather Summary

 TemperatureHumidityPressure
High93 °F (Oct 13, 2:53 PM)100% (Oct 12, 4:00 AM)30.19 "Hg (Oct 12, 4:00 AM)
Low56 °F (Oct 15, 5:53 AM)18% (Oct 14, 3:53 PM)29.72 "Hg (Oct 13, 4:53 AM)
Average76 °F72%29.97 "Hg
* Reported Oct 10 5:53 PM — Oct 25 5:53 PM, McAllen, Weather by CustomWeather, © 2014

Note: Actual official high and low records may vary slightly from our data, if they occured in-between our weather recording intervals... More about our weather records

Advertising

McAllen weather history for previous 24 hours

 ConditionsComfort  
Time TempWeatherWind HumidityBarometerVisibility
5:53 PM
Oct 25
86 °FScattered clouds.8 mph45%30.06 "Hg10 mi
4:53 PM86 °FSunny.No wind43%30.06 "Hg10 mi
3:53 PM85 °FSunny.3 mph45%30.07 "Hg10 mi
2:53 PM85 °FSunny.No wind45%30.09 "Hg10 mi
1:53 PM85 °FSunny.No wind45%30.11 "Hg10 mi
12:53 PM81 °FSunny.No wind54%30.14 "Hg10 mi
11:53 AM79 °FSunny.No wind60%30.17 "Hg10 mi
10:53 AM78 °FSunny.No wind66%30.18 "Hg10 mi
9:53 AM72 °FSunny.No wind81%30.17 "Hg8 mi
8:53 AM67 °FFog.No wind90%30.16 "Hg4 mi
7:53 AM63 °FFog.No wind97%30.14 "Hg3 mi
6:53 AM64 °FFog.3 mph97%30.13 "Hg3 mi
5:53 AM64 °FFog.No wind97%30.12 "Hg2 mi
4:53 AM65 °FFog.No wind97%30.13 "Hg5 mi
3:53 AM65 °FClear.No wind97%30.12 "Hg7 mi
2:53 AM66 °FClear.No wind93%30.13 "Hg7 mi
1:53 AM67 °FClear.No wind90%30.14 "Hg9 mi
12:53 AM68 °FClear.No wind84%30.14 "Hg10 mi
11:53 PM
Oct 24
68 °FClear.No wind87%30.14 "Hg9 mi
10:53 PM69 °FClear.5 mph84%30.14 "Hg10 mi
9:53 PM73 °FClear.6 mph74%30.13 "Hg10 mi
8:53 PM75 °FClear.10 mph66%30.11 "Hg10 mi
7:53 PM77 °FSunny.10 mph62%30.10 "Hg10 mi
Weather by CustomWeather, © 2014

See weather overviewHow to use our weather pages